This demonstration page uses our WeatherBlox Daily Observations layout. Learn more.

Left ArrowRight Arrow

41.55636, -103.73856

Hourly Observations for May 8, 2021

Temp ( °F °C ) Dew Point ( °F °C ) Humidity (%) Winds ( mph kmh ) Pressure ( in mb ) Visibility ( mi km ) Precip ( " mm )
12:58 am 00:58 Mostly Clear 53 11.9 49 9.4 85 85 SSE 18 30 29.62 1003 10 16 N/A
1:58 am 01:58 Clear 53 11.6 49 9.5 87 87 SSE 20 31 29.58 1002 10 16 N/A
2:58 am 02:58 Clear 50 10.2 48 8.9 92 92 SSE 10 17 29.56 1001 10 16 N/A
3:58 am 03:58 Mostly Cloudy with Mist and Fog 49 9.5 47 8.6 94 94 SSW 13 20 29.56 1001 6 10 N/A
4:58 am 04:58 Mostly Clear with Mist and Fog 47 8.6 47 8.1 97 97 W 9 15 29.56 1001 4 6 N/A
5:58 am 05:58 Mostly Cloudy 51 10.3 47 8.1 86 86 W 10 17 29.58 1002 10 16 N/A
6:58 am 06:58 Sunny 53 11.4 37 2.7 55 55 WNW 15 24 29.60 1002 10 16 N/A
7:58 am 07:58 Mostly Sunny 56 13.3 35 1.8 46 46 NW 29 46 29.60 1002 10 16 N/A
8:58 am 08:58 Sunny 60 15.5 33 0.4 36 36 NNW 35 56 29.62 1003 10 16 N/A
9:58 am 09:58 Sunny 62 16.7 31 -0.4 31 31 NNW 32 52 29.62 1003 10 16 N/A
10:58 am 10:58 Sunny 64 17.9 30 -1.1 28 28 NNW 33 54 29.62 1003 10 16 N/A
11:58 am 11:58 Sunny 67 19.6 27 -2.9 22 22 NNW 30 48 29.64 1004 10 16 N/A
12:56 pm 12:56 Sunny 66 19 31 -0.6 27 27 N 30 48 29.65 1004 10 16 N/A
1:56 pm 13:56 Sunny 66 19 41 4.9 40 40 N 22 35 29.66 1005 10 16 N/A
2:56 pm 14:56 Mostly Sunny 67 19.2 36 2 32 32 NNW 17 28 29.66 1005 10 16 N/A
3:56 pm 15:56 Mostly Sunny 64 17.8 40 4.5 42 42 NE 17 28 29.67 1005 10 16 N/A
4:56 pm 16:56 Sunny 63 17 39 3.8 42 42 NE 17 28 29.69 1006 10 16 N/A
5:56 pm 17:56 Sunny 56 13.6 40 4.4 54 54 NNE 24 39 29.76 1008 10 16 N/A
6:56 pm 18:56 Mostly Sunny 52 11.3 38 3.6 59 59 NNE 21 33 29.79 1009 10 16 N/A
7:56 pm 19:56 Mostly Sunny 48 8.7 38 3.4 70 70 NE 18 30 29.87 1011 10 16 N/A
8:56 pm 20:56 Mostly Cloudy 44 6.5 37 2.8 77 77 NE 18 30 29.90 1012 10 16 N/A
9:56 pm 21:56 Mostly Cloudy 41 4.9 35 1.9 81 81 NE 16 26 29.94 1014 10 16 N/A
10:58 pm 22:58 Cloudy 40 4.2 35 1.5 83 83 NE 16 26 29.97 1015 10 16 N/A

Powered by AerisWeather